Regional Weather Roundup
Issued by NWS

Home | Current Version | Previous Version | Text Only | Print | Product List | Glossary On
Versions: 1 2 3 4 5 6 7 8 9 10 11 12 13 14 15 16 17 18 19 20 21 22 23 24 25 26 27 28 29 30 31 32 33 34 35 36 37 38 39 40 41 42 43 44 45 46 47 48 49 50
000
ASUS44 KLIX 231312
RWRLA
LOUISIANA WEATHER ROUNDUP
NATIONAL WEATHER SERVICE NEW ORLEANS LA
700 AM CST MON JAN 23 2017

NOTE: "FAIR" INDICATES FEW OR NO CLOUDS BELOW 12,000 FEET WITH NO
      SIGNIFICANT WEATHER AND/OR OBSTRUCTIONS TO VISIBILITY.
      SKY/WX - SKY CONDITION AND SIGNIFICANT WEATHER.
      TMP - AIR TEMPERATURE.    DP   - DEWPOINT TEMPERATURE.
      RH  - RELATIVE HUMIDITY.  PRES - PRESSURE.
      HX  - HEAT INDEX.         WCI  - WIND CHILL INDEX.

*  THESE STATIONS ARE NOT NWS OR FAA STATIONS AND ARE NOT UNDER
   NWS QUALITY CONTROL.

LAZ040-048-061>063-065-066-069-231400-
SOUTHEAST LOUISIANA

CITY           SKY/WX    TMP DP  RH WIND       PRES   REMARKS
N.O. AUDUBON   NOT AVBL
N.O. INTL ARPT MOCLDY    55  46  71 NW15      29.78R
N.O. LAKEFRONT CLOUDY    57  50  77 NW24      29.78R
N.O. DOWNTOWN*   N/A     56  47  71 NW9       29.79R
RESERVE*       FAIR      55  44  67 NW9       29.80R
SLIDELL        CLOUDY    56  48  74 NW10G20   29.74R
BATON ROUGE    CLEAR     52  40  63 NW9       29.81R
BOOTHVILLE     CLOUDY    56  48  74 NW13      29.77R
BELLE CHASSE   MOCLDY    56  47  71 VRB7G17   29.77R
BOGALUSA*      CLOUDY    56  47  71 NW10G16   29.75R
GALLIANO*      CLOUDY    54  42  63 W14       29.80R
NEW ROADS*     FAIR      49  40  72 NW7       29.84R
GONZALES*      FAIR      52  40  64 NW9       29.80S
HAMMOND*       CLOUDY    54  45  71 NW13      29.78R
HOUMA*         CLEAR     54  41  62 NW9G23    29.81R
PORT FOURCHON* MOSUNNY   55  45  67 NW20G26   29.80R

$$

LAZ041-044-053-054-231400-
SOUTHWEST LOUISIANA

CITY           SKY/WX    TMP DP  RH WIND       PRES   REMARKS
LAKE CHARLES   CLEAR     49  39  68 W9        29.90R
LAFAYETTE      CLEAR     52  39  61 NW10      29.85R
PATTERSON      CLEAR     51  41  68 NW8       29.84R
SALT POINT     NOT AVBL
NEW IBERIA     CLEAR     49  39  68 NW6       29.86R
CHENAULT AIRPK CLEAR     50  37  62 W12G18    29.91R

$$

LAZ027-028-231400-
CENTRAL LOUISIANA

CITY           SKY/WX    TMP DP  RH WIND       PRES   REMARKS
FORT POLK      CLEAR     46  38  72 W6        29.88R
ALEXANDRIA INT CLEAR     48  38  68 NW8       29.84R
ALEXANDRIA     CLEAR     46  38  73 CALM      29.84R

$$

LAZ001-002-231400-
NORTHWEST LOUISIANA

CITY           SKY/WX    TMP DP  RH WIND       PRES   REMARKS
SHREVEPORT     CLEAR     44  35  70 NW12      29.89R
BARKSDALE AFB  CLEAR     43  34  70 NW12      29.88R
DTN SHREVEPORT CLEAR     45  34  65 NW12G18   29.89R

$$

LAZ014-016-231400-
NORTHEAST LOUISIANA

CITY           SKY/WX    TMP DP  RH WIND       PRES   REMARKS
MONROE         CLEAR     47  38  71 NW9       29.83R
TALLULAH       CLEAR     48  42  80 NW7       29.82R

$$




USA.gov is the U.S. government's official web portal to all federal, state and local government web resources and services.